Seldovia, AK

4:59 PM AKDT on August 30, 2016 (GMT -0800)
Seldovia

Weather History for PASO - September, 2013

Change the Weather History Date:

Friday, September 6, 2013

  Actual Average (PAHO) Record (PAHO)
Temperature  
Mean Temperature 50 °F -  
Max Temperature 55 °F 57 °F 67 °F (1964)
Min Temperature 46 °F 41 °F 28 °F (1960)
Degree Days  
Heating Degree Days 14    
Moisture  
Dew Point 49 °F    
Average Humidity 89    
Maximum Humidity 94    
Minimum Humidity 69    
Precipitation  
Precipitation 0.90 in - - ()
Sea Level Pressure  
Sea Level Pressure 29.47 in    
Wind  
Wind Speed 4 mph (NNE)    
Max Wind Speed 15 mph    
Max Gust Speed 21 mph    
Visibility 6 miles    
Events Rain    
Averages and records for this station are not official NWS values.
T = Trace of Precipitation, MM = Missing Value Source: NWS Daily Summary

Daily Weather History Graph

Daily Weather History Graph

Search for Another Location

Airport or City:

Trip Planner

Search our weather history database for the weather conditions in past years. The results will help you decide how hot, cold, wet, or windy it might be!

Date:

Astronomy

Sep. 06, 2013 Rise Set
Actual Time 7:15 AM AKDT 8:52 PM AKDT
Civil Twilight 6:32 AM AKDT 9:35 PM AKDT
Nautical Twilight 5:38 AM AKDT 10:29 PM AKDT
Astronomical Twilight 4:33 AM AKDT 11:32 PM AKDT
Moon 9:12 AM AKDT (9/6) 8:42 PM AKDT (9/6)
Length of Visible Light 15h 02m
Length of Day
13h 36m
New Moon, 2% of the Moon is Illuminated
Sep 6
New Moon
Sep 12
First Quarter
Sep 19
Full
Sep 26
Last Quarter
Oct 4
New

Hourly Weather History & Observations

Time (AKDT) Temp. Dew Point Humidity Pressure Visibility Wind Dir Wind Speed Gust Speed Precip Events Conditions
12:53 AM 48.0 °F 45.0 °F 89% 29.94 in 10.0 mi Calm Calm - N/A   Scattered Clouds
1:53 AM 46.9 °F 44.1 °F 90% 29.91 in 10.0 mi Calm Calm - N/A   Scattered Clouds
2:53 AM 48.9 °F 44.1 °F 83% 29.87 in 10.0 mi Calm Calm - N/A   Clear
3:53 AM 51.1 °F 44.1 °F 77% 29.83 in 10.0 mi North 4.6 mph - N/A   Overcast
4:53 AM 52.0 °F 42.1 °F 69% 29.78 in 10.0 mi Variable 5.8 mph - N/A   Overcast
5:53 AM 51.1 °F 43.0 °F 74% 29.73 in 8.0 mi NNE 11.5 mph 16.1 mph 0.00 in Rain Light Rain
6:53 AM 48.9 °F 45.0 °F 86% 29.65 in 6.0 mi NNE 5.8 mph - 0.06 in Rain Rain
7:53 AM 48.9 °F 45.0 °F 86% 29.58 in 4.0 mi NNE 10.4 mph 19.6 mph 0.12 in Rain Rain
8:53 AM 50.0 °F 46.0 °F 86% 29.52 in 5.0 mi NNE 12.7 mph 20.7 mph 0.12 in Rain Light Rain
9:34 AM 50.0 °F 46.4 °F 87% 29.49 in 2.5 mi Variable 5.8 mph 17.3 mph 0.10 in Rain Rain
9:45 AM 50.0 °F 46.4 °F 87% 29.48 in 3.0 mi NNE 10.4 mph 19.6 mph 0.12 in Rain Rain
9:53 AM 50.0 °F 46.9 °F 89% 29.49 in 4.0 mi Variable 5.8 mph 18.4 mph 0.13 in Rain Light Rain
10:53 AM 51.1 °F 48.0 °F 89% 29.45 in 4.0 mi North 11.5 mph 20.7 mph 0.08 in Rain Rain
11:53 AM 53.1 °F 48.9 °F 86% 29.44 in 5.0 mi NNE 15.0 mph 19.6 mph 0.03 in Rain Light Rain
12:53 PM 55.0 °F 50.0 °F 83% 29.42 in 10.0 mi NNE 10.4 mph 19.6 mph 0.02 in   Overcast
1:53 PM 55.9 °F 51.1 °F 84% 29.39 in 7.0 mi North 8.1 mph 16.1 mph 0.00 in Rain Light Rain
2:16 PM 55.4 °F 51.8 °F 88% 29.38 in 2.5 mi Calm Calm - 0.02 in Rain Light Rain
2:26 PM 55.4 °F 53.6 °F 94% 29.38 in 3.0 mi Calm Calm - 0.02 in Rain Light Rain
2:43 PM 55.4 °F 53.6 °F 94% 29.38 in 1.8 mi Calm Calm - 0.04 in Rain Light Rain
2:53 PM 55.0 °F 52.0 °F 89% 29.39 in 1.8 mi Variable 3.5 mph - 0.05 in Rain Light Rain
3:07 PM 53.6 °F 51.8 °F 94% 29.38 in 3.0 mi Variable 3.5 mph - 0.01 in Rain Light Rain
3:21 PM 53.6 °F 51.8 °F 94% 29.37 in 8.0 mi Calm Calm - 0.01 in   Overcast
3:53 PM 55.0 °F 53.1 °F 93% 29.37 in 8.0 mi NNE 5.8 mph - 0.02 in   Overcast
4:04 PM 55.4 °F 53.6 °F 94% 29.37 in 8.0 mi Calm Calm - 0.00 in Rain Light Rain
4:21 PM 55.4 °F 53.6 °F 94% 29.36 in 7.0 mi North 3.5 mph - 0.00 in Rain Light Rain
4:51 PM 53.6 °F 51.8 °F 94% 29.35 in 10.0 mi Variable 3.5 mph - 0.00 in   Overcast
4:53 PM 53.1 °F 51.1 °F 93% 29.35 in 10.0 mi North 3.5 mph - 0.00 in   Overcast
5:22 PM 53.6 °F 51.8 °F 94% 29.34 in 4.0 mi Calm Calm - 0.01 in Rain Light Rain
5:53 PM 54.0 °F 52.0 °F 93% 29.34 in 9.0 mi Calm Calm - 0.01 in Rain Light Rain
6:53 PM 54.0 °F 52.0 °F 93% 29.32 in 10.0 mi Calm Calm - 0.00 in   Overcast
7:53 PM 53.1 °F 50.0 °F 89% 29.31 in 7.0 mi NNE 5.8 mph - 0.04 in Rain Light Rain
8:53 PM 52.0 °F 50.0 °F 93% 29.31 in 5.0 mi NNE 4.6 mph - 0.04 in Rain Rain
9:53 PM 52.0 °F 50.0 °F 93% 29.32 in 5.0 mi North 4.6 mph - 0.07 in Rain Light Rain
10:53 PM 52.0 °F 50.0 °F 93% 29.34 in 7.0 mi Calm Calm - 0.08 in Rain Light Rain
11:36 PM 51.8 °F 50.0 °F 94% 29.37 in 7.0 mi NNE 4.6 mph - 0.03 in Rain Light Rain
11:53 PM 52.0 °F 50.0 °F 93% 29.38 in 8.0 mi Calm Calm - 0.03 in Rain Light Rain